Regional Weather Roundup
Issued by NWS Portland, ME

Current Version | Previous Version | Text Only | Print | Product List | Glossary Off
Versions: 1 2 3 4 5 6 7 8 9 10 11 12 13 14 15 16 17 18 19 20 21 22 23 24 25 26 27 28 29 30 31 32 33 34 35 36 37 38 39 40 41 42 43 44 45 46 47 48 49 50
000 ASUS41 KGYX 200105 RWRGYX WEATHER ROUNDUP FOR MAINE AND NEW HAMPSHIRE NATIONAL WEATHER SERVICE GRAY ME 900 PM EDT SUN AUG 19 2018 MEZ002-005-006-010-012-015-018-020-021-024-026-027-029-200200- MAINE CITY SKY/WX TMP DP RH WIND PRES REMARKS PORTLAND MOCLDY 66 60 81 E5 30.14R SANFORD FAIR 59 58 96 CALM 30.14R BAR HARBOR FAIR 62 58 86 CALM 30.15R WISCASSET MOCLDY 65 60 84 CALM 30.15R ROCKLAND CLOUDY 65 59 81 CALM 30.14R FRYEBURG FAIR 61 59 93 CALM 30.15R LEWISTONAUBURN MOCLDY 65 60 84 CALM 30.15R AUGUSTA FAIR 68 57 68 CALM 30.15R WATERVILLE FAIR 65 57 75 N3 30.11S BANGOR FAIR 65 57 75 NE5 30.15R GREENVILLE NOT AVBL MILLINOCKET FAIR 61 57 87 CALM 30.18R HOULTON FAIR 60 55 83 E6 30.17R PRESQUE ISLE FAIR 62 57 83 VRB3 30.18R FRENCHVILLE FAIR 69 52 54 CALM 30.17R CARIBOU FAIR 65 57 75 S3 30.17R $$ NHZ002-005-008-009-011-012-014-200200- NEW HAMPSHIRE CITY SKY/WX TMP DP RH WIND PRES REMARKS PORTSMOUTH MOCLDY 66 58 77 N5 30.11R ROCHESTER FAIR 62 60 93 NW3 30.14R NASHUA FAIR 64 62 93 NW3 30.14R MANCHESTER MOCLDY 67 59 75 NE3 30.12R CONCORD FAIR 62 59 90 CALM 30.14R LACONIA FAIR 64 60 87 N3 30.15R PLYMOUTH FAIR 63 60 91 CALM 30.14R BERLIN FAIR 59 57 93 CALM 30.16R WHITEFIELD FAIR 59 57 93 CALM 30.15R JAFFREY FAIR 62 60 93 CALM 30.17R KEENE FAIR N/A N/A N/A SW3 30.14R LEBANON FAIR 64 58 80 S6 30.12R MT WASHINGTON PTCLDY 46 36 66 NE5 N/A $$ VTZ005-007-008-200200- VERMONT CITY SKY/WX TMP DP RH WIND PRES REMARKS ST JOHNSBURY N/A 67 62 84 MISG 30.11R MONTPELIER FAIR 67 63 87 CALM 30.16R BURLINGTON FAIR 71 63 75 SE3 30.08R $$ MAZ007-012-024-CTZ003-RIZ002-NYZ038-NYZ072-200200- SOUTHERN NEW ENGLAND AND NY CITY SKY/WX TMP DP RH WIND PRES REMARKS BOSTON CLOUDY 69 61 75 NE20 30.10R WORCESTER FAIR 62 58 86 NE9 30.13R NANTUCKET LGT RAIN 66 66 100 N13 30.03R FOG PROVIDENCE MOCLDY 67 60 78 NE10 30.10R HARTFORD CLOUDY 70 56 61 NE6 30.10R ALBANY CLOUDY 73 58 59 CALM 30.09R NEW YORK CITY CLOUDY 73 64 73 NE7 30.05R $$ ANZ081-ANZ082-ANZ150-NHZ014-MEZ023>029-200200- COASTAL MARINE OBSERVATIONS STATION/POSITION TIME TEMP WIND PRES WAVE AIR SEA DIR/SP/G HT/PER (UTC) (F) (DEG/KT/KT) (MB) (FT/S) MOUNT DESERT ROC 0100 58 40/ 11/ 11 1020.2R MATINICUS ROCK 0000 61 60/ 15/ 16 1019.2R ISLE OF SHOALS 0000 67 30/ 10/ 11 1019.0R JEFFREYS LEDGE 0036 69 N/A 6/ 7 $$ .............KEY.............. WCI - WIND CHILL TC - TEMPERATURE IN CELSIUS VSB - VISIBILITY IN MILES HX - HEAT INDEX FAIR- INDICATES FEW OR NO CLOUDS BELOW 12,000 FT, WITH NO SIGNIFICANT WEATHER AND/OR OBSTRUCTIONS TO VISIBILITY.

USA.gov is the U.S. government's official web portal to all federal, state and local government web resources and services.